This is the latest recevied weather packets stored in our database for station/object OK2ILA-1. If no packets are shown the sender has not sent any weather packets the latest 10 day(s).
| Time | Temp. | Humidity | Pressure | Rain* | Wind** | Luminosity | Snow |
|---|---|---|---|---|---|---|---|
| 1778079148 | 23.89° C | 100% | 1007.7 hPa | 0 mm | - | - | - |
| 1778078427 | 23.33° C | 100% | 1007.8 hPa | 0 mm | - | - | - |
| 1778077706 | 23.33° C | 100% | 1007.8 hPa | 0 mm | - | - | - |
| 1778076986 | 23.89° C | 100% | 1007.9 hPa | 0 mm | - | - | - |
| 1778076265 | 24.44° C | 100% | 1007.9 hPa | 0 mm | - | - | - |
| 1778075544 | 23.89° C | 100% | 1008 hPa | 0 mm | - | - | - |
| 1778074824 | 25° C | 100% | 1008.1 hPa | 0 mm | - | - | - |
| 1778074103 | 23.89° C | 100% | 1008.2 hPa | 0 mm | - | - | - |
| 1778073382 | 23.89° C | 100% | 1008.3 hPa | 0 mm | - | - | - |
| 1778072662 | 25.56° C | 100% | 1008.3 hPa | 0 mm | - | - | - |
| 1778071941 | 25.56° C | 100% | 1008.2 hPa | 0 mm | - | - | - |
| 1778071220 | 25.56° C | 100% | 1008.4 hPa | 0 mm | - | - | - |
| 1778070500 | 25° C | 100% | 1008.5 hPa | 0 mm | - | - | - |
| 1778069779 | 25° C | 100% | 1008.4 hPa | 0 mm | - | - | - |
| 1778069058 | 24.44° C | 100% | 1008.5 hPa | 0 mm | - | - | - |
| 1778068338 | 25° C | 100% | 1008.4 hPa | 0 mm | - | - | - |
| 1778067617 | 23.89° C | 100% | 1008.5 hPa | 0 mm | - | - | - |
| 1778066896 | 24.44° C | 100% | 1008.5 hPa | 0 mm | - | - | - |
| 1778066175 | 24.44° C | 100% | 1008.6 hPa | 0 mm | - | - | - |
| 1778065455 | 24.44° C | 100% | 1008.6 hPa | 0 mm | - | - | - |
| 1778064734 | 24.44° C | 100% | 1008.5 hPa | 0 mm | - | - | - |
| 1778064013 | 24.44° C | 100% | 1008.4 hPa | 0 mm | - | - | - |
| 1778063293 | 23.89° C | 100% | 1008.6 hPa | 0 mm | - | - | - |
| 1778062572 | 23.89° C | 100% | 1008.7 hPa | 0 mm | - | - | - |
| 1778061851 | 22.78° C | 100% | 1008.8 hPa | 0 mm | - | - | - |
* Rain latest hour (hover to see other rain measurements)
** Current wind speed in m/s (hover to see current wind gust speed)